Create Custom Reports and Graphics: Custom Report

Siberia 8700'

Squaw Valley

1/15/21 1:30 PM (-08:00)
Updated Every 15 Minutes
Temp 44.3 °F   2.5
RH 31 %   10
Wet Bulb 33.0 °F   0.2
Dew Pt 15.8 °F   4.1
Wind Dir W | 268 °
Wind Spd 30.8 mph   10.0
Wind Gust 38.2 mph   14.2
WindChill 34.5 °F   2.3
Daily Min Temp 44.1 °F   7.3
Daily Max Temp 50.6 °F   7.5

Last 24 Hours

Squaw-Siberia 8700'

Hourly Data | America/Los_Angeles
as of 1/15/21 1:33 PM PST
Date & Time Temp (°F) RH (%) Dew Pt (°F) Wet Bulb (°F) Wind Dir (°) Wind Spd (mph) Wind Gust (mph) WindChill (°F) Daily Min Temp (°F) Daily Max Temp (°F)
1/15/21 - 1300 45.7 26 12.7 33.0 WSW | 247 27.6 40.6 38.5 45.6 50.6
1/15/21 - 1200 48.1 25 14.0 34.6 W | 259 25.0 36.3 39.4 45.9 50.6
1/15/21 - 1100 48.2 26 14.8 34.8 WSW | 249 24.9 33.9 40.6 45.9 50.6
1/15/21 - 1000 48.6 19 7.9 33.6 WSW | 251 23.1 33.2 41.5 45.9 50.6
1/15/21 - 0900 47.8 17 5.3 32.7 WSW | 244 20.8 31.1 40.2 45.9 50.6
1/15/21 - 0800 47.2 18 6.3 32.6 W | 260 16.5 22.3 41.9 45.9 50.6
1/15/21 - 0700 48.0 12 -2.2 31.7 W | 261 9.0 14.1 45.5 45.9 50.6
1/15/21 - 0600 48.8 10 -6.0 31.7 WNW | 290 6.5 12.0 46.1 45.9 50.6
1/15/21 - 0500 48.8 8 -10.0 31.3 WNW | 302 6.3 10.4 44.3 45.9 50.6
1/15/21 - 0400 46.8 19 6.9 32.5 NW | 305 6.5 10.5 46.4 46.2 50.6
1/15/21 - 0300 49.6 9 -8.1 31.9 WNW | 285 7.5 12.2 44.5 46.2 50.6
1/15/21 - 0200 48.1 17 5.3 32.8 S | 190 3.8 11.5 48.1 47.3 50.6
1/15/21 - 0100 50.2 10 -3.8 32.7 ESE | 104 11.9 19.4 43.7 47.3 50.2
1/15/21 - 0000 47.6 29 16.7 34.9 E | 79 18.1 22.8 39.7 36.8 47.9
1/14/21 - 2300 45.8 32 17.4 34.2 E | 86 13.6 19.0 40.5 36.8 47.9
1/14/21 - 2200 46.9 32 18.9 35.2 E | 89 11.3 17.5 41.0 36.8 47.9
1/14/21 - 2100 47.0 30 17.5 34.8 E | 92 15.2 19.7 39.2 36.8 47.9
1/14/21 - 2000 45.1 37 20.3 34.6 E | 96 12.5 17.6 39.7 36.8 47.9
1/14/21 - 1900 44.8 38 21.1 34.7 E | 90 15.6 21.2 36.3 36.8 45.4
1/14/21 - 1800 42.4 39 19.5 33.0 ENE | 72 18.2 26.8 33.4 36.8 43.2
1/14/21 - 1700 41.2 34 15.3 31.2 ENE | 71 19.3 24.7 32.7 36.8 43.1
1/14/21 - 1600 42.1 38 18.5 32.5 ENE | 72 18.9 25.6 33.4 36.8 43.1
1/14/21 - 1500 41.9 35 16.6 31.9 ENE | 76 17.9 24.0 33.5 36.8 43.1
1/14/21 - 1400 42.0 35 16.1 31.8 ENE | 71 20.0 29.3 32.7 36.8 43.1
1/14/21 - 1300 42.2 34 15.6 31.8 ENE | 69 26.1 33.3 31.9 36.8 43.1
Max 50.2 39 21.1 35.2 - 27.6 40.6 48.1 47.3 50.6
Avg 46.2 25 10.3 33.1 - 15.8 22.8 39.8 - -
Min 41.2 8 -10.0 31.2 - 3.8 10.4 31.9 36.8 43.1

Last 30 Days

Squaw-Siberia 8700'

Daily Data | America/Los_Angeles
as of 1/15/21 1:33 PM PST
Date Daily Max Temp (°F) Time of Max Temp Daily Min Temp (°F) Time of Min Temp Wind Spd (mph) Daily Max Wind (mph) Time of Max Wind Max Wind Dir (°) Wet Bulb (°F) WetB Hrs <28F (hrs)
1/14/21 47.9 1940 36.8 0213 16.6 33.3 1242 E | 91 30.1 9.7
1/13/21 40.8 2020 32.0 0756 23.6 52.7 0507 SW | 220 32.5 3.8
1/12/21 35.6 2351 26.2 1937 34.9 60.0 1137 SW | 216 25.6 19.8
1/11/21 45.2 1153 31.0 2326 11.8 38.3 2357 WSW | 258 27.0 14.2
1/10/21 36.9 2359 26.6 2215 18.8 43.4 0500 WSW | 243 27.6 12.1
1/9/21 37.3 2256 24.7 0558 16.7 41.6 1216 ENE | 62 21.6 22.1
1/8/21 32.7 0054 17.8 1844 30.0 72.6 1404 W | 265 22.3 24.0
1/7/21 38.1 1058 24.8 0451 12.9 33.5 0004 WSW | 238 22.0 24.0
1/6/21 31.8 1109 23.9 2040 31.0 71.5 1402 SW | 231 22.0 24.0
1/5/21 31.4 2352 15.9 0419 15.8 45.4 0001 W | 260 21.1 24.0
1/4/21 30.2 1400 19.1 2359 56.7 135.9 1606 W | 269 24.9 21.2
1/3/21 29.0 1135 22.7 0824 23.9 62.6 0258 WSW | 243 25.4 21.9
1/2/21 29.7 1420 21.4 0527 35.9 72.5 2202 WSW | 243 25.8 17.3
1/1/21 43.9 1008 18.7 0058 28.3 73.3 2256 SSW | 203 22.8 23.3
12/31/20 22.1 1427 17.0 0511 24.5 77.4 0027 SW | 222 19.1 24.0
12/30/20 32.9 0744 17.5 1911 27.8 74.0 1811 WSW | 258 19.0 24.0
12/29/20 29.3 2357 11.7 0803 18.5 43.6 0510 ESE | 123 15.6 24.0
12/28/20 24.0 1357 15.6 2358 18.4 36.0 0439 E | 93 17.9 24.0
12/27/20 23.0 1502 17.1 0025 23.5 48.6 1838 ENE | 65 18.4 24.0
12/26/20 24.6 0044 17.0 2346 35.6 112.4 0145 WSW | 245 20.1 24.0
12/25/20 31.0 1227 24.3 2359 49.0 112.5 2126 W | 264 24.2 24.0
12/24/20 36.9 1252 26.5 2349 20.7 42.0 2357 SW | 235 22.9 24.0
12/23/20 41.5 2228 16.2 0304 25.5 62.7 0949 ENE | 76 19.9 24.0
12/22/20 36.8 1255 18.3 2301 21.7 95.1 0249 WSW | 258 21.4 24.0
12/21/20 44.2 0129 27.9 2332 24.7 79.1 2245 WSW | 237 26.7 13.4
12/20/20 45.6 1519 37.7 0100 11.3 34.6 0431 WSW | 245 28.5 8.8
12/19/20 40.1 2337 30.6 0702 16.3 36.4 0142 W | 269 26.0 19.7
12/18/20 38.8 2103 13.5 0332 19.4 42.0 0310 ENE | 61 20.6 23.9
12/17/20 28.0 0002 15.2 2340 28.5 84.2 0244 S | 179 20.5 24.0
12/16/20 38.3 0934 26.6 2201 22.6 61.0 1830 SW | 217 26.2 16.7
Max 47.9 - 37.7 - 56.7 135.9 - - 32.5 24.0
Avg - - - - 24.8 - - - 23.3 -
Min 22.1 - 11.7 - 11.3 33.3 - - 15.6 3.8
Calm: 0.0%
Calm: 0.0%